User: anonymous   Login
Location: Unspecified
(0.0000°N, 0.0000°E)
Time: 21:08:02
(UTC+02:00)
Language:

Cosmos 1092 Rocket - Orbit

View from above orbital plane
View from above orbital plane
View from above satellite
View from above satellite

Ground track
Ground track

The orbit data is extracted from the following two-line orbital elements,

1 11327U 79030B   17177.89909428 +.00000032 +00000-0 +16949-4 0  9993
2 11327 082.9508 288.6379 0028498 150.0946 349.5494 13.76965798920265
Epoch (UTC): 26 June 2017 21:34:41
Eccentricity: 0.0028498
inclination: 82.9508°
perigee height: 954 km
apogee height: 995 km
right ascension of ascending node: 288.6379°
argument of perigee: 150.0946°
revolutions per day: 13.76965798
mean anomaly at epoch: 349.5494°
orbit number at epoch: 92026

The dashed part of the orbit path shows where the satellite is in the earth's shadow,  

DLR